CCA1112 ZBHH-ZBAA

Flight info

Callsign CCA1112
Flight time N/A
Altitude 20700
Route LUGVU8ZD LUGVU W69 GUVBA GUVBA9Y
Aircraft A320/M-SDE3FGHIRWY/LB1

Departure

Time 2026-05-07 11:27
Airport Hohhot Baita International Airport (ZBHH)

Arrival

Time N/A
Airport Beijing Capital International Airport (ZBAA)
Time Latitude Longitude Altitude Speed Heading
2026-05-07 10:50 40.85298 111.81545 3536 ft 0 kts 343°
2026-05-07 11:16 40.85282 111.81551 3536 ft 3 kts 343°
2026-05-07 11:17 40.85264 111.81558 3536 ft 3 kts 343°
2026-05-07 11:17 40.85245 111.81564 3536 ft 3 kts 11°
2026-05-07 11:17 40.85227 111.81553 3536 ft 3 kts 54°
2026-05-07 11:17 40.85222 111.81541 3536 ft 0 kts 70°
2026-05-07 11:20 40.85225 111.81551 3536 ft 1 kts 70°
2026-05-07 11:20 40.85229 111.81569 3536 ft 3 kts 70°
2026-05-07 11:21 40.85241 111.81614 3536 ft 7 kts 73°
2026-05-07 11:21 40.85232 111.81672 3536 ft 7 kts 137°
2026-05-07 11:21 40.85183 111.81696 3536 ft 9 kts 162°
2026-05-07 11:21 40.85117 111.81723 3536 ft 11 kts 163°
2026-05-07 11:22 40.85043 111.81753 3535 ft 11 kts 162°
2026-05-07 11:22 40.85011 111.81830 3534 ft 11 kts 73°
2026-05-07 11:22 40.85037 111.81935 3534 ft 13 kts 72°
2026-05-07 11:22 40.85066 111.82061 3534 ft 15 kts 72°
2026-05-07 11:23 40.85099 111.82198 3534 ft 17 kts 73°
2026-05-07 11:23 40.85135 111.82355 3534 ft 19 kts 73°
2026-05-07 11:23 40.85175 111.82526 3534 ft 21 kts 72°
2026-05-07 11:23 40.85220 111.82714 3535 ft 22 kts 72°
2026-05-07 11:24 40.85269 111.82917 3534 ft 23 kts 73°
2026-05-07 11:24 40.85318 111.83127 3534 ft 25 kts 73°
2026-05-07 11:24 40.85368 111.83342 3534 ft 24 kts 72°
2026-05-07 11:24 40.85418 111.83554 3534 ft 24 kts 72°
2026-05-07 11:25 40.85471 111.83775 3534 ft 26 kts 72°
2026-05-07 11:25 40.85525 111.84008 3534 ft 27 kts 73°
2026-05-07 11:25 40.85580 111.84238 3535 ft 26 kts 72°
2026-05-07 11:25 40.85605 111.84390 3534 ft 11 kts 114°
2026-05-07 11:26 40.85532 111.84432 3531 ft 13 kts 165°
2026-05-07 11:26 40.85454 111.84460 3528 ft 6 kts 174°
2026-05-07 11:26 40.85434 111.84430 3528 ft 4 kts 257°
2026-05-07 11:26 40.85417 111.84349 3528 ft 26 kts 253°
2026-05-07 11:27 40.85302 111.83859 3527 ft 85 kts 252°
2026-05-07 11:27 40.85071 111.82886 3529 ft 136 kts 253°
2026-05-07 11:27 40.84758 111.81592 3883 ft 149 kts 251°
2026-05-07 11:27 40.84453 111.80306 4595 ft 148 kts 251°
2026-05-07 11:28 40.84151 111.78990 5260 ft 150 kts 251°
2026-05-07 11:28 40.83842 111.77671 5912 ft 149 kts 250°
2026-05-07 11:28 40.83538 111.76385 6607 ft 145 kts 253°
2026-05-07 11:28 40.83230 111.75077 7106 ft 157 kts 255°
2026-05-07 11:29 40.82882 111.73583 7297 ft 185 kts 257°
2026-05-07 11:29 40.82477 111.71827 7448 ft 214 kts 257°
2026-05-07 11:29 40.82022 111.69859 7822 ft 234 kts 257°
2026-05-07 11:29 40.81475 111.67807 8640 ft 244 kts 244°
2026-05-07 11:30 40.80217 111.66157 9212 ft 276 kts 210°
2026-05-07 11:30 40.78242 111.65591 9633 ft 308 kts 176°
2026-05-07 11:30 40.76850 111.66056 10112 ft 317 kts 154°
2026-05-07 11:30 40.74996 111.67713 10739 ft 333 kts 140°
2026-05-07 11:31 40.73082 111.69648 10953 ft 360 kts 144°
2026-05-07 11:31 40.70974 111.71579 11460 ft 375 kts 146°
2026-05-07 11:31 40.68797 111.73475 12425 ft 374 kts 147°
2026-05-07 11:31 40.66618 111.75336 13326 ft 375 kts 147°
2026-05-07 11:32 40.62055 111.78955 14591 ft 392 kts 156°
2026-05-07 11:32 40.59497 111.80248 15256 ft 395 kts 161°
2026-05-07 11:32 40.56903 111.81479 15972 ft 399 kts 161°
2026-05-07 11:33 40.54278 111.82739 16580 ft 405 kts 161°
2026-05-07 11:33 40.51615 111.84022 17157 ft 410 kts 161°
2026-05-07 11:33 40.48916 111.85322 17735 ft 415 kts 160°
2026-05-07 11:33 40.46278 111.86906 18303 ft 421 kts 149°
2026-05-07 11:34 40.43908 111.89197 18777 ft 427 kts 135°
2026-05-07 11:34 40.41973 111.92146 19324 ft 427 kts 121°
2026-05-07 11:34 40.40584 111.95548 20062 ft 421 kts 108°
2026-05-07 11:34 40.39748 111.99225 20468 ft 423 kts 95°
2026-05-07 11:35 40.39489 112.03082 20714 ft 428 kts 86°
2026-05-07 11:35 40.39381 112.06963 20875 ft 424 kts 86°
2026-05-07 11:35 40.39268 112.10828 20883 ft 423 kts 86°
2026-05-07 11:35 40.39149 112.14680 20860 ft 423 kts 86°
2026-05-07 11:36 40.39027 112.18484 20861 ft 423 kts 87°
2026-05-07 11:36 40.38898 112.22337 20866 ft 423 kts 87°
2026-05-07 11:36 40.38765 112.26200 20866 ft 423 kts 87°
2026-05-07 11:36 40.38631 112.30057 20865 ft 423 kts 87°
2026-05-07 11:37 40.38515 112.33913 20864 ft 421 kts 84°
2026-05-07 11:37 40.38770 112.37695 20868 ft 414 kts 73°
2026-05-07 11:37 40.39539 112.41292 20859 ft 405 kts 62°
2026-05-07 11:37 40.40763 112.44562 20869 ft 398 kts 52°
2026-05-07 11:38 40.42379 112.47459 20861 ft 389 kts 42°
2026-05-07 11:38 40.44180 112.50099 20861 ft 388 kts 42°
2026-05-07 11:38 40.45979 112.52744 20864 ft 389 kts 42°
2026-05-07 11:38 40.47776 112.55391 20862 ft 388 kts 42°
2026-05-07 11:39 40.49572 112.58041 20864 ft 387 kts 42°
2026-05-07 11:39 40.51363 112.60687 20866 ft 387 kts 42°
2026-05-07 11:39 40.53153 112.63337 20864 ft 387 kts 42°
2026-05-07 11:39 40.54939 112.65988 20866 ft 387 kts 42°
2026-05-07 11:40 40.56684 112.68697 20871 ft 391 kts 48°
2026-05-07 11:40 40.58057 112.71834 20871 ft 401 kts 60°
2026-05-07 11:40 40.58889 112.75320 20860 ft 410 kts 73°
2026-05-07 11:40 40.59123 112.79095 20852 ft 420 kts 87°
2026-05-07 11:41 40.58870 112.82941 20849 ft 422 kts 90°
2026-05-07 11:41 40.58601 112.86782 20869 ft 422 kts 90°
2026-05-07 11:41 40.58347 112.90631 20863 ft 422 kts 90°
2026-05-07 11:41 40.58107 112.94473 20857 ft 422 kts 89°
2026-05-07 11:42 40.57867 112.98316 20864 ft 421 kts 89°
2026-05-07 11:42 40.57621 113.02159 20859 ft 421 kts 90°
2026-05-07 11:42 40.57366 113.06002 20856 ft 422 kts 90°
2026-05-07 11:42 40.57106 113.09844 20852 ft 421 kts 90°
2026-05-07 11:43 40.56845 113.13685 20858 ft 421 kts 90°
2026-05-07 11:43 40.56583 113.17553 20853 ft 432 kts 90°
2026-05-07 11:43 40.56317 113.21571 20845 ft 449 kts 90°
2026-05-07 11:43 40.56040 113.25742 20847 ft 465 kts 90°
2026-05-07 11:44 40.55747 113.30021 20845 ft 475 kts 91°
2026-05-07 11:44 40.55440 113.34388 20849 ft 481 kts 91°
2026-05-07 11:44 40.55124 113.38770 20855 ft 481 kts 91°
2026-05-07 11:44 40.54809 113.43153 20856 ft 482 kts 91°
2026-05-07 11:45 40.54494 113.47531 20856 ft 481 kts 91°
2026-05-07 11:45 40.54179 113.51919 20859 ft 482 kts 91°
2026-05-07 11:45 40.53868 113.56301 20862 ft 482 kts 91°
2026-05-07 11:45 40.53554 113.60695 20862 ft 481 kts 91°
2026-05-07 11:46 40.53234 113.65069 20849 ft 481 kts 91°
2026-05-07 11:46 40.52912 113.69448 20860 ft 482 kts 91°
2026-05-07 11:46 40.52586 113.73831 20857 ft 481 kts 91°
2026-05-07 11:46 40.52259 113.78208 20855 ft 482 kts 91°
2026-05-07 11:47 40.51934 113.82591 20852 ft 482 kts 91°
2026-05-07 11:47 40.51609 113.86970 20857 ft 482 kts 91°
2026-05-07 11:47 40.51286 113.91352 20844 ft 482 kts 91°
2026-05-07 11:47 40.50962 113.95732 20842 ft 482 kts 91°
2026-05-07 11:48 40.50638 114.00111 20847 ft 481 kts 91°
2026-05-07 11:48 40.50374 114.04487 20847 ft 480 kts 89°
2026-05-07 11:48 40.50179 114.08866 20844 ft 479 kts 88°
2026-05-07 11:48 40.50021 114.13243 20847 ft 479 kts 88°
2026-05-07 11:49 40.49876 114.17614 20845 ft 479 kts 88°
2026-05-07 11:49 40.49724 114.21981 20846 ft 479 kts 88°
2026-05-07 11:49 40.49555 114.26353 20845 ft 479 kts 88°
2026-05-07 11:49 40.49369 114.30721 20845 ft 479 kts 89°
2026-05-07 11:50 40.49174 114.35094 20845 ft 479 kts 89°
2026-05-07 11:50 40.48972 114.39461 20846 ft 479 kts 89°
2026-05-07 11:50 40.48771 114.43772 20845 ft 479 kts 89°
2026-05-07 11:50 40.48569 114.48137 20837 ft 479 kts 89°
2026-05-07 11:51 40.48367 114.52509 20832 ft 480 kts 89°
2026-05-07 11:51 40.48164 114.56883 20829 ft 480 kts 89°
2026-05-07 11:51 40.47960 114.61313 20828 ft 479 kts 89°
2026-05-07 11:51 40.47761 114.65620 20818 ft 479 kts 89°
2026-05-07 11:52 40.47558 114.69991 20816 ft 479 kts 89°
2026-05-07 11:52 40.47354 114.74356 20817 ft 479 kts 89°
2026-05-07 11:52 40.47145 114.78718 20800 ft 479 kts 89°
2026-05-07 11:52 40.46934 114.83077 20796 ft 479 kts 89°
2026-05-07 11:53 40.46723 114.87443 20749 ft 473 kts 89°
2026-05-07 11:53 40.46510 114.91650 20403 ft 451 kts 89°
2026-05-07 11:53 40.46302 114.95676 19964 ft 434 kts 89°
2026-05-07 11:53 40.46101 114.99564 19515 ft 420 kts 88°
2026-05-07 11:54 40.45908 115.03336 19025 ft 409 kts 88°
2026-05-07 11:54 40.45721 115.07034 18538 ft 403 kts 88°
2026-05-07 11:54 40.45539 115.10692 18047 ft 400 kts 88°
2026-05-07 11:54 40.45361 115.14316 17559 ft 396 kts 88°
2026-05-07 11:55 40.45185 115.17909 17058 ft 393 kts 88°
2026-05-07 11:55 40.45008 115.21472 16565 ft 389 kts 88°
2026-05-07 11:55 40.44827 115.25013 16111 ft 388 kts 89°
2026-05-07 11:55 40.44645 115.28533 15782 ft 385 kts 89°
2026-05-07 11:56 40.44461 115.32042 15746 ft 386 kts 89°
2026-05-07 11:56 40.44275 115.35564 15803 ft 387 kts 89°
2026-05-07 11:56 40.44088 115.39048 15851 ft 388 kts 89°
2026-05-07 11:56 40.43898 115.42577 15678 ft 387 kts 89°
2026-05-07 11:57 40.43706 115.46083 15348 ft 382 kts 89°
2026-05-07 11:57 40.43512 115.49528 15025 ft 373 kts 89°
2026-05-07 11:57 40.43324 115.52851 14831 ft 358 kts 89°
2026-05-07 11:57 40.43204 115.56054 14552 ft 346 kts 86°
2026-05-07 11:58 40.43166 115.59182 14220 ft 339 kts 85°
2026-05-07 11:58 40.43169 115.62244 13927 ft 331 kts 85°
2026-05-07 11:58 40.43180 115.65227 13909 ft 325 kts 85°
2026-05-07 11:58 40.43185 115.68212 13909 ft 327 kts 85°
2026-05-07 11:59 40.43178 115.71190 13887 ft 326 kts 86°
2026-05-07 11:59 40.43165 115.74167 13915 ft 326 kts 86°
2026-05-07 11:59 40.43142 115.77146 13997 ft 327 kts 85°
2026-05-07 11:59 40.43118 115.80129 13931 ft 327 kts 86°
2026-05-07 12:00 40.43089 115.83104 13881 ft 326 kts 86°
2026-05-07 12:00 40.43059 115.86077 13911 ft 325 kts 86°
2026-05-07 12:00 40.43028 115.89054 13997 ft 328 kts 86°
2026-05-07 12:00 40.42998 115.92046 13936 ft 327 kts 86°
2026-05-07 12:01 40.42968 115.95024 13882 ft 326 kts 86°
2026-05-07 12:01 40.42935 115.98000 13748 ft 326 kts 86°
2026-05-07 12:01 40.42902 116.00970 13551 ft 324 kts 86°
2026-05-07 12:01 40.42868 116.03928 13321 ft 323 kts 86°
2026-05-07 12:02 40.42833 116.06873 13075 ft 323 kts 86°
2026-05-07 12:02 40.42799 116.09813 12850 ft 321 kts 87°
2026-05-07 12:02 40.42765 116.12738 12717 ft 321 kts 86°
2026-05-07 12:02 40.42535 116.15748 12566 ft 348 kts 102°
2026-05-07 12:03 40.41515 116.18525 12367 ft 340 kts 123°
2026-05-07 12:03 40.40159 116.21029 12103 ft 332 kts 124°
2026-05-07 12:03 40.38826 116.23461 11861 ft 325 kts 124°
2026-05-07 12:03 40.37522 116.25842 11605 ft 319 kts 124°
2026-05-07 12:04 40.36236 116.28197 11358 ft 316 kts 124°
2026-05-07 12:04 40.34958 116.30540 11124 ft 316 kts 124°
2026-05-07 12:04 40.33685 116.32877 10859 ft 313 kts 124°
2026-05-07 12:04 40.32419 116.35202 10621 ft 313 kts 124°
2026-05-07 12:05 40.31158 116.37519 10366 ft 312 kts 124°
2026-05-07 12:05 40.29896 116.39825 10121 ft 311 kts 124°
2026-05-07 12:05 40.28639 116.42120 9867 ft 309 kts 124°
2026-05-07 12:05 40.27389 116.44406 9620 ft 308 kts 123°
2026-05-07 12:06 40.26143 116.46686 9381 ft 308 kts 123°
2026-05-07 12:06 40.24902 116.48957 9147 ft 305 kts 124°
2026-05-07 12:06 40.23664 116.51213 8998 ft 305 kts 124°
2026-05-07 12:06 40.22427 116.53471 8802 ft 305 kts 124°
2026-05-07 12:07 40.21195 116.55719 8558 ft 303 kts 123°
2026-05-07 12:07 40.19966 116.57959 8338 ft 301 kts 123°
2026-05-07 12:07 40.18747 116.60190 8187 ft 303 kts 124°
2026-05-07 12:07 40.17521 116.62422 7997 ft 302 kts 123°
2026-05-07 12:08 40.16315 116.64608 7757 ft 300 kts 123°
2026-05-07 12:08 40.15096 116.66816 7510 ft 299 kts 123°
2026-05-07 12:08 40.13811 116.68944 7291 ft 299 kts 132°
2026-05-07 12:08 40.12251 116.70734 7057 ft 299 kts 144°
2026-05-07 12:09 40.10463 116.72092 6810 ft 297 kts 156°
2026-05-07 12:09 40.08510 116.72994 6560 ft 297 kts 167°